User: anonymous   Login
Location: Carr Mill
(33.2054°N, 85.9439°W)
Time: 14:54:53
(UTC+00:00)
Language:

Cosmos 1892 - Orbit

View from above orbital plane
View from above orbital plane
View from above satellite
View from above satellite

Ground track
Ground track

The orbit data is extracted from the following two-line orbital elements,

1 18421U 87088A   21020.18288294  .00000724  00000-0  34482-4 0  9992
2 18421  82.4989  59.0172 0015864  38.5605 321.6758 15.17427371817638
Epoch (UTC): 20 January 2021 04:23:21
Eccentricity: 0.0015864
inclination: 82.4989°
perigee height: 502 km
apogee height: 524 km
right ascension of ascending node: 59.0172°
argument of perigee: 38.5605°
revolutions per day: 15.17427371
mean anomaly at epoch: 321.6758°
orbit number at epoch: 81763

The dashed part of the orbit path shows where the satellite is in the earth's shadow,  

DLR